Location: Les Jeannots
(43.2262°N, 5.5774°E)
Time: 17:13:01
(UTC+00:00)

Cosmos 1452 Rocket - Pass Details

Date: 05 July 2020
Orbit: 768 x 774 km, 74.1° (Epoch: 12 August)

Event Time Altitude Azimuth Distance (km) Brightness Sun altitude
Rises 23:26:24 0° 341° (NNW) 3,254 8.0 -24.0°
Reaches altitude 10° 23:28:48 10° 344° (NNW) 2,322 7.0 -24.0°
Maximum altitude 23:34:04 70° 68° (ENE) 818 3.6 -24.1°
Enters shadow 23:35:03 56° 126° (SE) 914 3.6 -24.1°
